This is the latest recevied weather packets stored in our database for station/object N5UKZ-WX. If no packets are shown the sender has not sent any weather packets the latest 10 day(s).
| Time | Temp. | Humidity | Pressure | Rain* | Wind** | Luminosity | Snow |
|---|---|---|---|---|---|---|---|
| 1787714231 | 25.56° C | 84% | 1015.6 hPa | 0 mm | - | - | - |
| 1787713301 | 26.67° C | 84% | 1015.3 hPa | 0 mm | - | - | - |
| 1787712371 | 26.11° C | 83% | 1015.6 hPa | 0 mm | - | - | - |
| 1787711441 | 27.22° C | 82% | 1015.6 hPa | 0 mm | - | - | - |
| 1787710541 | 26.11° C | 81% | 1015.3 hPa | 0 mm | - | - | - |
| 1787709611 | 26.67° C | 79% | 1015.3 hPa | 0 mm | - | - | - |
| 1787708681 | 27.22° C | 78% | 1015.3 hPa | 0 mm | - | - | - |
| 1787707781 | 27.78° C | 76% | 1015.3 hPa | 0 mm | - | - | - |
| 1787706851 | 26.67° C | 75% | 1014.9 hPa | 0 mm | - | - | - |
| 1787705921 | 27.78° C | 74% | 1014.6 hPa | 0 mm | - | - | - |
| 1787705021 | 27.78° C | 73% | 1014.6 hPa | 0 mm | - | - | - |
| 1787704091 | 27.78° C | 73% | 1014.6 hPa | 0 mm | - | - | - |
| 1787703161 | 28.33° C | 71% | 1014.9 hPa | 0 mm | - | - | - |
| 1787702261 | 28.33° C | 69% | 1015.3 hPa | 0 mm | - | - | - |
| 1787701331 | 30.56° C | 67% | 1015.6 hPa | 0 mm | - | - | - |
| 1787700431 | 32.22° C | 65% | 1015.3 hPa | 0 mm | - | - | - |
| 1787699501 | 32.22° C | 62% | 1014.9 hPa | 0 mm | - | - | - |
| 1787698571 | 33.33° C | 58% | 1014.3 hPa | 0 mm | - | - | - |
| 1787697641 | 34.44° C | 57% | 1014.3 hPa | 0 mm | - | - | - |
| 1787696741 | 35° C | 56% | 1013.9 hPa | 0 mm | - | - | - |
| 1787695811 | 35.56° C | 56% | 1013.6 hPa | 0 mm | - | - | - |
| 1787694881 | 36.11° C | 53% | 1013.6 hPa | 0 mm | - | - | - |
| 1787693981 | 35.56° C | 54% | 1013.6 hPa | 0 mm | - | - | - |
| 1787693051 | 35.56° C | 55% | 1013.2 hPa | 0 mm | - | - | - |
| 1787692121 | 36.67° C | 55% | 1013.6 hPa | 0 mm | - | - | - |
* Rain latest hour (hover to see other rain measurements)
** Current wind speed in m/s (hover to see current wind gust speed)